Location: Iesi
(43.5167°N, 13.2333°E)
Time: 18:28:47
(UTC+00:00)

IRIDIUM 114 - Pass Details

Date: 08 August 2020
Orbit: 776 x 779 km, 86.4° (Epoch: 23 September)

Event Time Altitude Azimuth Distance (km) Brightness Sun altitude
Rises 19:32:09 0° 182° (S) 3,246 7.2 -12.2°
Reaches altitude 10° 19:34:29 10° 183° (S) 2,324 6.5 -12.5°
Maximum altitude 19:39:42 86° 272° (W) 787 4.4 -13.3°
Drops below altitude 10° 19:44:58 10° 2° (N) 2,342 7.3 -14.0°
Sets 19:47:19 0° 3° (N) 3,274 8.1 -14.4°
